Location: Clanezzo
(45.7500°N, 9.6000°E)
Time: 10:08:10
(UTC+00:00)

CUTE-I - Pass Details

Date: 11 December 2023
Orbit: 807 x 822 km, 98.7° (Epoch: 23 February)

Event Time Altitude Azimuth Distance (km) Brightness Sun altitude
Rises 04:42:04 0° 25° (NNE) 3,365 ? -21.7°
Reaches altitude 10° 04:44:53 10° 39° (NE) 2,429 ? -21.3°
Maximum altitude 04:49:12 24° 93° (E) 1,644 ? -20.5°
Drops below altitude 10° 04:53:29 10° 146° (SSE) 2,417 ? -19.8°
Sets 04:56:15 0° 160° (SSE) 3,344 ? -19.3°
